TIANTONG-1 1

Last updated on Thu Oct 30 2025 00:02:50 GMT+0000 (Coordinated Universal Time)

1 41725U 16048A 25302.41985743 -.00000306 00000+0 00000+0 0 9999 2 41725 3.4169 40.8186 0000635 35.1718 214.5642 1.00275980 33956
UTC large
Height (km)
Speed (km/s)
/
Latitude / Longitude
Inclination (degrees)
Orbital Period (minutes)
Azimuth
Elevation
Range (km)
Doppler Factor

Next 0 passes for location: London (51.5072 / 0.1276)

Sorry there are no passes over London.